| time (UTC) | temp C | wind direction | speed KPH | gust KPH | rain 1hr cm | rain 24hr cm | rain mn cm | humidity % | barometer mb |
| 20260903001213 | 28 | 336 | 0.0 | 0.0 | 0.00 | 0.00 | 0.00 | 70 | 1014.7 |
| 20260903000708 | 28 | 333 | 1.6 | 1.6 | 0.00 | 0.00 | 0.00 | 69 | 1014.6 |
| 20260903000208 | 28 | 241 | 0.0 | 6.4 | 0.00 | 0.00 | 0.00 | 70 | 1014.4 |
| 20260902235706 | 28 | 167 | 1.6 | 4.8 | 0.00 | 0.00 | 0.00 | 70 | 1014.2 |
| 20260902235202 | 29 | 201 | 0.0 | 1.6 | 0.00 | 0.00 | 0.00 | 68 | 1014.4 |
| 20260902234701 | 29 | 191 | 0.0 | 1.6 | 0.00 | 0.00 | 0.00 | 68 | 1014.6 |
| 20260902234200 | 29 | 180 | 1.6 | 1.6 | 0.00 | 0.00 | 0.00 | 67 | 1014.6 |
| 20260902233655 | 29 | 219 | 3.2 | 4.8 | 0.00 | 0.00 | 0.00 | 66 | 1014.8 |
| 20260902233155 | 30 | 164 | 1.6 | 4.8 | 0.00 | 0.00 | 0.00 | 66 | 1014.8 |
| 20260902232654 | 30 | 223 | 3.2 | 4.8 | 0.00 | 0.00 | 0.00 | 64 | 1014.7 |
| 20260902232153 | 30 | 139 | 1.6 | 1.6 | 0.00 | 0.00 | 0.00 | 63 | 1014.6 |
| 20260902231647 | 30 | 189 | 1.6 | 1.6 | 0.00 | 0.00 | 0.00 | 63 | 1014.8 |
| 20260902231142 | 30 | 222 | 1.6 | 4.8 | 0.00 | 0.00 | 0.00 | 62 | 1014.8 |
| 20260902230638 | 30 | 313 | 1.6 | 1.6 | 0.00 | 0.00 | 0.00 | 61 | 1014.7 |
| 20260902230136 | 31 | 150 | 0.0 | 4.8 | 0.00 | 0.00 | 0.00 | 61 | 1014.8 |
| 20260902225632 | 31 | 218 | 6.4 | 6.4 | 0.00 | 0.00 | 0.00 | 60 | 1014.9 |
| 20260902225131 | 31 | 227 | 4.8 | 6.4 | 0.00 | 0.00 | 0.00 | 61 | 1014.9 |
| 20260902224630 | 31 | 269 | 6.4 | 8.0 | 0.00 | 0.00 | 0.00 | 59 | 1014.7 |
| 20260902224126 | 31 | 221 | 3.2 | 12.9 | 0.00 | 0.00 | 0.00 | 58 | 1014.7 |
| 20260902223622 | 32 | 95 | 1.6 | 4.8 | 0.00 | 0.00 | 0.00 | 59 | 1014.9 |
| 20260902223121 | 32 | 270 | 3.2 | 4.8 | 0.00 | 0.00 | 0.00 | 58 | 1014.9 |
| 20260902222622 | 32 | 311 | 1.6 | 4.8 | 0.00 | 0.00 | 0.00 | 57 | 1014.8 |
| 20260902222119 | 32 | 248 | 1.6 | 6.4 | 0.00 | 0.00 | 0.00 | 56 | 1014.8 |
| 20260902221613 | 32 | 195 | 1.6 | 6.4 | 0.00 | 0.00 | 0.00 | 56 | 1014.7 |
| 20260902221108 | 32 | 259 | 1.6 | 1.6 | 0.00 | 0.00 | 0.00 | 56 | 1014.5 |
| 20260902220604 | 32 | 259 | 6.4 | 8.0 | 0.00 | 0.00 | 0.00 | 55 | 1014.6 |
| 20260902220058 | 32 | 227 | 3.2 | 8.0 | 0.00 | 0.00 | 0.00 | 56 | 1014.6 |
| 20260902215554 | 32 | 258 | 4.8 | 8.0 | 0.00 | 0.00 | 0.00 | 56 | 1014.5 |
| 20260902215050 | 32 | 339 | 8.0 | 11.3 | 0.00 | 0.00 | 0.00 | 56 | 1014.4 |
| 20260902214550 | 32 | 188 | 4.8 | 11.3 | 0.00 | 0.00 | 0.00 | 56 | 1014.5 |
| 20260902214049 | 33 | 244 | 3.2 | 8.0 | 0.00 | 0.00 | 0.00 | 57 | 1014.5 |
| 20260902213545 | 33 | 240 | 4.8 | 6.4 | 0.00 | 0.00 | 0.00 | 54 | 1014.5 |
| 20260902213044 | 33 | 324 | 1.6 | 4.8 | 0.00 | 0.00 | 0.00 | 56 | 1014.6 |
| 20260902212539 | 33 | 288 | 3.2 | 11.3 | 0.00 | 0.00 | 0.00 | 57 | 1014.7 |
| 20260902212036 | 33 | 248 | 4.8 | 12.9 | 0.00 | 0.00 | 0.00 | 55 | 1014.7 |
| 20260902211532 | 33 | 212 | 3.2 | 11.3 | 0.00 | 0.00 | 0.00 | 55 | 1014.7 |
| 20260902211027 | 33 | 278 | 3.2 | 4.8 | 0.00 | 0.00 | 0.00 | 53 | 1015.0 |
| 20260902210527 | 33 | 329 | 3.2 | 6.4 | 0.00 | 0.00 | 0.00 | 54 | 1015.0 |
| 20260902210026 | 33 | 280 | 6.4 | 16.1 | 0.00 | 0.00 | 0.00 | 52 | 1015.0 |
| 20260902205520 | 33 | 251 | 14.5 | 19.3 | 0.00 | 0.00 | 0.00 | 51 | 1015.4 |
| 20260902205016 | 33 | 190 | 11.3 | 12.9 | 0.00 | 0.00 | 0.00 | 51 | 1015.4 |
| 20260902204515 | 32 | 207 | 4.8 | 16.1 | 0.00 | 0.00 | 0.00 | 54 | 1015.3 |
| 20260902204011 | 33 | 234 | 6.4 | 8.0 | 0.00 | 0.00 | 0.00 | 52 | 1015.1 |
| 20260902203506 | 33 | 115 | 0.0 | 11.3 | 0.00 | 0.00 | 0.00 | 52 | 1015.0 |
| 20260902203005 | 33 | 309 | 4.8 | 6.4 | 0.00 | 0.00 | 0.00 | 51 | 1015.4 |
| 20260902202501 | 33 | 226 | 4.8 | 8.0 | 0.00 | 0.00 | 0.00 | 55 | 1015.2 |
| 20260902201958 | 33 | 200 | 6.4 | 11.3 | 0.00 | 0.00 | 0.00 | 53 | 1015.3 |
| 20260902201457 | 33 | 246 | 4.8 | 16.1 | 0.00 | 0.00 | 0.00 | 51 | 1015.4 |
| 20260902200952 | 34 | 226 | 6.4 | 19.3 | 0.00 | 0.00 | 0.00 | 50 | 1015.3 |
| 20260902200447 | 34 | 281 | 6.4 | 11.3 | 0.00 | 0.00 | 0.00 | 51 | 1015.4 |
| 20260902195943 | 33 | 171 | 6.4 | 11.3 | 0.00 | 0.00 | 0.00 | 51 | 1015.5 |
| 20260902195438 | 33 | 140 | 3.2 | 12.9 | 0.00 | 0.00 | 0.00 | 53 | 1015.6 |
| 20260902194938 | 34 | 248 | 8.0 | 16.1 | 0.00 | 0.00 | 0.00 | 50 | 1015.6 |
| 20260902194437 | 33 | 191 | 4.8 | 6.4 | 0.00 | 0.00 | 0.00 | 49 | 1015.4 |
| 20260902193932 | 34 | 143 | 8.0 | 8.0 | 0.00 | 0.00 | 0.00 | 49 | 1015.7 |
| 20260902193428 | 35 | 160 | 3.2 | 6.4 | 0.00 | 0.00 | 0.00 | 48 | 1015.7 |
| 20260902192927 | 34 | 213 | 3.2 | 6.4 | 0.00 | 0.00 | 0.00 | 51 | 1015.7 |
| 20260902192426 | 34 | 65 | 3.2 | 6.4 | 0.00 | 0.00 | 0.00 | 48 | 1015.7 |
| 20260902191925 | 33 | 211 | 3.2 | 6.4 | 0.00 | 0.00 | 0.00 | 48 | 1015.8 |
| 20260902191421 | 34 | 276 | 8.0 | 12.9 | 0.00 | 0.00 | 0.00 | 49 | 1015.9 |
| 20260902190916 | 34 | 241 | 1.6 | 4.8 | 0.00 | 0.00 | 0.00 | 49 | 1015.9 |
| 20260902190411 | 34 | 282 | 8.0 | 8.0 | 0.00 | 0.00 | 0.00 | 49 | 1016.0 |
| 20260902185906 | 33 | 312 | 1.6 | 1.6 | 0.00 | 0.00 | 0.00 | 53 | 1016.1 |
| 20260902185402 | 33 | 248 | 6.4 | 11.3 | 0.00 | 0.00 | 0.00 | 49 | 1016.0 |
| 20260902184857 | 33 | 217 | 8.0 | 8.0 | 0.00 | 0.00 | 0.00 | 51 | 1016.1 |
| 20260902184352 | 33 | 246 | 9.7 | 11.3 | 0.00 | 0.00 | 0.00 | 49 | 1016.2 |
| 20260902183848 | 33 | 349 | 1.6 | 6.4 | 0.00 | 0.00 | 0.00 | 52 | 1016.4 |
| 20260902183344 | 33 | 221 | 4.8 | 6.4 | 0.00 | 0.00 | 0.00 | 53 | 1016.4 |
| 20260902182834 | 32 | 257 | 6.4 | 11.3 | 0.00 | 0.00 | 0.00 | 53 | 1016.1 |
| 20260902182330 | 33 | 250 | 9.7 | 12.9 | 0.00 | 0.00 | 0.00 | 52 | 1016.2 |
| 20260902181826 | 32 | 103 | 3.2 | 11.3 | 0.00 | 0.00 | 0.00 | 55 | 1016.3 |
| 20260902181322 | 32 | 259 | 4.8 | 8.0 | 0.00 | 0.00 | 0.00 | 55 | 1016.5 |
| 20260902180816 | 33 | 185 | 8.0 | 11.3 | 0.00 | 0.00 | 0.00 | 54 | 1016.4 |
| 20260902180312 | 33 | 327 | 1.6 | 6.4 | 0.00 | 0.00 | 0.00 | 54 | 1016.5 |
| 20260902175807 | 32 | 211 | 8.0 | 8.0 | 0.00 | 0.00 | 0.00 | 54 | 1016.9 |
| 20260902175307 | 32 | 266 | 11.3 | 12.9 | 0.00 | 0.00 | 0.00 | 54 | 1017.0 |
| 20260902174757 | 32 | 288 | 3.2 | 8.0 | 0.00 | 0.00 | 0.00 | 59 | 1017.1 |
| 20260902174253 | 32 | 178 | 4.8 | 12.9 | 0.00 | 0.00 | 0.00 | 59 | 1017.1 |
| 20260902173749 | 33 | 252 | 6.4 | 6.4 | 0.00 | 0.00 | 0.00 | 56 | 1016.9 |
| 20260902173243 | 32 | 113 | 3.2 | 4.8 | 0.00 | 0.00 | 0.00 | 62 | 1017.1 |
| 20260902172737 | 32 | 154 | 4.8 | 6.4 | 0.00 | 0.00 | 0.00 | 62 | 1017.2 |
| 20260902172232 | 32 | 217 | 1.6 | 4.8 | 0.00 | 0.00 | 0.00 | 64 | 1017.2 |
| 20260902171727 | 31 | 278 | 4.8 | 8.0 | 0.00 | 0.00 | 0.00 | 62 | 1017.4 |
| 20260902171222 | 31 | 269 | 4.8 | 8.0 | 0.00 | 0.00 | 0.00 | 63 | 1017.4 |
| 20260902170718 | 31 | 228 | 4.8 | 8.0 | 0.00 | 0.00 | 0.00 | 63 | 1017.3 |
| 20260902170213 | 31 | 196 | 1.6 | 8.0 | 0.00 | 0.00 | 0.00 | 64 | 1017.4 |
| 20260902165708 | 31 | 268 | 8.0 | 11.3 | 0.00 | 0.00 | 0.00 | 62 | 1017.2 |
| 20260902165203 | 31 | 118 | 4.8 | 11.3 | 0.00 | 0.00 | 0.00 | 67 | 1017.3 |
| 20260902164658 | 31 | 261 | 1.6 | 1.6 | 0.00 | 0.00 | 0.00 | 64 | 1017.3 |
| 20260902164156 | 31 | 173 | 1.6 | 11.3 | 0.00 | 0.00 | 0.00 | 64 | 1017.2 |
| 20260902163652 | 31 | 246 | 6.4 | 12.9 | 0.00 | 0.00 | 0.00 | 64 | 1017.3 |
| 20260902163152 | 31 | 221 | 3.2 | 6.4 | 0.00 | 0.00 | 0.00 | 66 | 1017.4 |
| 20260902162650 | 31 | 244 | 8.0 | 11.3 | 0.00 | 0.00 | 0.00 | 65 | 1017.5 |
| 20260902162145 | 31 | 184 | 4.8 | 12.9 | 0.00 | 0.00 | 0.00 | 64 | 1017.4 |
| 20260902161640 | 31 | 281 | 8.0 | 8.0 | 0.00 | 0.00 | 0.00 | 64 | 1017.5 |
| 20260902161136 | 30 | 309 | 1.6 | 4.8 | 0.00 | 0.00 | 0.00 | 65 | 1017.6 |
| 20260902160632 | 30 | 266 | 4.8 | 6.4 | 0.00 | 0.00 | 0.00 | 66 | 1017.6 |
| 20260902160127 | 31 | 276 | 11.3 | 12.9 | 0.00 | 0.00 | 0.00 | 65 | 1017.6 |
| 20260902155625 | 30 | 256 | 4.8 | 6.4 | 0.00 | 0.00 | 0.00 | 66 | 1017.8 |
| 20260902155124 | 30 | 220 | 3.2 | 6.4 | 0.00 | 0.00 | 0.00 | 68 | 1017.7 |
| 20260902154619 | 31 | 301 | 8.0 | 8.0 | 0.00 | 0.00 | 0.00 | 65 | 1017.9 |
| 20260902154114 | 30 | 237 | 3.2 | 8.0 | 0.00 | 0.00 | 0.00 | 67 | 1017.9 |
| 20260902153613 | 30 | 121 | 1.6 | 4.8 | 0.00 | 0.00 | 0.00 | 67 | 1017.7 |
| 20260902153109 | 30 | 262 | 8.0 | 8.0 | 0.00 | 0.00 | 0.00 | 68 | 1017.6 |
| 20260902152605 | 30 | 267 | 6.4 | 6.4 | 0.00 | 0.00 | 0.00 | 71 | 1017.9 |
| 20260902152100 | 30 | 239 | 8.0 | 12.9 | 0.00 | 0.00 | 0.00 | 69 | 1017.8 |
| 20260902151556 | 30 | 65 | 0.0 | 1.6 | 0.00 | 0.00 | 0.00 | 70 | 1017.8 |
| 20260902151055 | 30 | 208 | 4.8 | 8.0 | 0.00 | 0.00 | 0.00 | 69 | 1017.8 |
| 20260902150550 | 29 | 280 | 3.2 | 8.0 | 0.00 | 0.00 | 0.00 | 70 | 1017.8 |
| 20260902150046 | 29 | 330 | 3.2 | 6.4 | 0.00 | 0.00 | 0.00 | 71 | 1017.6 |
| 20260902145541 | 28 | 249 | 0.0 | 4.8 | 0.00 | 0.00 | 0.00 | 73 | 1017.9 |
| 20260902145040 | 28 | 314 | 3.2 | 6.4 | 0.00 | 0.00 | 0.00 | 74 | 1017.6 |
| 20260902144537 | 28 | 264 | 6.4 | 11.3 | 0.00 | 0.00 | 0.00 | 74 | 1017.6 |
| 20260902144037 | 28 | 250 | 4.8 | 4.8 | 0.00 | 0.00 | 0.00 | 75 | 1017.6 |
| 20260902143532 | 28 | 34 | 1.6 | 1.6 | 0.00 | 0.00 | 0.00 | 74 | 1017.7 |
| 20260902143028 | 28 | 223 | 3.2 | 11.3 | 0.00 | 0.00 | 0.00 | 75 | 1017.6 |
| 20260902142523 | 28 | 273 | 4.8 | 6.4 | 0.00 | 0.00 | 0.00 | 75 | 1017.5 |
| 20260902142019 | 28 | 213 | 6.4 | 8.0 | 0.00 | 0.00 | 0.00 | 75 | 1017.4 |
| 20260902141518 | 28 | 281 | 8.0 | 8.0 | 0.00 | 0.00 | 0.00 | 75 | 1017.6 |
| 20260902141014 | 27 | 235 | 3.2 | 12.9 | 0.00 | 0.00 | 0.00 | 76 | 1017.4 |
| 20260902140508 | 27 | 355 | 6.4 | 11.3 | 0.00 | 0.00 | 0.00 | 77 | 1017.4 |
| 20260902140003 | 27 | 115 | 1.6 | 6.4 | 0.00 | 0.00 | 0.00 | 79 | 1017.4 |
| 20260902135458 | 27 | 105 | 1.6 | 6.4 | 0.00 | 0.00 | 0.00 | 80 | 1017.4 |
| 20260902134958 | 27 | 193 | 1.6 | 8.0 | 0.00 | 0.00 | 0.00 | 81 | 1017.5 |
| 20260902134454 | 26 | 267 | 6.4 | 8.0 | 0.00 | 0.00 | 0.00 | 81 | 1017.3 |
| 20260902133953 | 26 | 139 | 4.8 | 4.8 | 0.00 | 0.00 | 0.00 | 82 | 1017.2 |
| 20260902133448 | 26 | 234 | 3.2 | 11.3 | 0.00 | 0.00 | 0.00 | 83 | 1017.3 |
| 20260902132943 | 26 | 113 | 3.2 | 8.0 | 0.00 | 0.00 | 0.00 | 84 | 1017.4 |
| 20260902132438 | 26 | 243 | 3.2 | 8.0 | 0.00 | 0.00 | 0.00 | 84 | 1017.2 |
| 20260902131933 | 26 | 184 | 3.2 | 11.3 | 0.00 | 0.00 | 0.00 | 84 | 1017.4 |
| 20260902131430 | 25 | 229 | 1.6 | 6.4 | 0.00 | 0.00 | 0.00 | 86 | 1017.4 |
| 20260902130930 | 25 | 252 | 4.8 | 6.4 | 0.00 | 0.00 | 0.00 | 86 | 1017.3 |
| 20260902130426 | 25 | 287 | 4.8 | 6.4 | 0.00 | 0.00 | 0.00 | 87 | 1017.4 |
| 20260902125925 | 25 | 107 | 1.6 | 1.6 | 0.00 | 0.00 | 0.00 | 88 | 1017.4 |
| 20260902125422 | 25 | 276 | 3.2 | 4.8 | 0.00 | 0.00 | 0.00 | 87 | 1017.4 |
| 20260902124917 | 25 | 106 | 1.6 | 1.6 | 0.00 | 0.00 | 0.00 | 88 | 1017.3 |
| 20260902124413 | 24 | 306 | 0.0 | 4.8 | 0.00 | 0.00 | 0.00 | 90 | 1017.5 |
| 20260902123908 | 23 | 147 | 0.0 | 0.0 | 0.00 | 0.00 | 0.00 | 92 | 1017.5 |
| 20260902123405 | 23 | 152 | 3.2 | 4.8 | 0.00 | 0.00 | 0.00 | 93 | 1017.5 |
| 20260902122903 | 23 | 232 | 0.0 | 4.8 | 0.00 | 0.00 | 0.00 | 93 | 1017.5 |
| 20260902122359 | 23 | 233 | 0.0 | 4.8 | 0.00 | 0.00 | 0.00 | 93 | 1017.4 |
| 20260902121854 | 23 | 232 | 1.6 | 1.6 | 0.00 | 0.00 | 0.00 | 95 | 1017.4 |
| 20260902121348 | 22 | 234 | 0.0 | 1.6 | 0.00 | 0.00 | 0.00 | 96 | 1017.3 |
| 20260902120843 | 22 | 230 | 1.6 | 1.6 | 0.00 | 0.00 | 0.00 | 96 | 1017.1 |
| 20260902120340 | 22 | 230 | 0.0 | 1.6 | 0.00 | 0.00 | 0.00 | 97 | 1017.4 |
| 20260902115834 | 22 | 230 | 0.0 | 1.6 | 0.00 | 0.00 | 0.00 | 97 | 1017.3 |
| 20260902115331 | 22 | 230 | 0.0 | 0.0 | 0.00 | 0.00 | 0.00 | 97 | 1017.3 |
| 20260902114827 | 22 | 230 | 0.0 | 1.6 | 0.00 | 0.00 | 0.00 | 98 | 1017.1 |
| 20260902114323 | 22 | 229 | 1.6 | 1.6 | 0.00 | 0.00 | 0.00 | 98 | 1016.9 |
| 20260902113822 | 22 | 206 | 0.0 | 0.0 | 0.00 | 0.00 | 0.00 | 98 | 1016.7 |
| 20260902113317 | 22 | 222 | 0.0 | 1.6 | 0.00 | 0.00 | 0.00 | 98 | 1016.6 |
| 20260902112812 | 22 | 222 | 1.6 | 4.8 | 0.00 | 0.00 | 0.00 | 98 | 1016.6 |
| 20260902112309 | 22 | 230 | 3.2 | 4.8 | 0.00 | 0.00 | 0.00 | 98 | 1016.7 |
| 20260902111803 | 22 | 227 | 1.6 | 1.6 | 0.00 | 0.00 | 0.00 | 98 | 1016.5 |
| 20260902111300 | 22 | 227 | 0.0 | 1.6 | 0.00 | 0.00 | 0.00 | 98 | 1016.5 |
| 20260902110755 | 22 | 227 | 0.0 | 0.0 | 0.00 | 0.00 | 0.00 | 98 | 1016.4 |
| 20260902110251 | 22 | 227 | 0.0 | 0.0 | 0.00 | 0.00 | 0.00 | 98 | 1016.7 |
| 20260902105751 | 22 | 227 | 0.0 | 0.0 | 0.00 | 0.00 | 0.00 | 98 | 1016.6 |
| 20260902105246 | 22 | 227 | 0.0 | 0.0 | 0.00 | 0.00 | 0.00 | 98 | 1016.6 |
| 20260902104742 | 22 | 227 | 0.0 | 1.6 | 0.00 | 0.00 | 0.00 | 98 | 1016.5 |
| 20260902104237 | 22 | 226 | 1.6 | 0.0 | 0.00 | 0.00 | 0.00 | 98 | 1016.3 |
| 20260902103736 | 22 | 225 | 0.0 | 1.6 | 0.00 | 0.00 | 0.00 | 98 | 1016.3 |
| 20260902103231 | 22 | 225 | 1.6 | 1.6 | 0.00 | 0.00 | 0.00 | 98 | 1016.4 |
| 20260902102727 | 22 | 221 | 0.0 | 1.6 | 0.00 | 0.00 | 0.00 | 98 | 1016.3 |
| 20260902102224 | 22 | 219 | 0.0 | 1.6 | 0.00 | 0.00 | 0.00 | 98 | 1016.4 |
| 20260902101719 | 22 | 219 | 1.6 | 1.6 | 0.00 | 0.00 | 0.00 | 98 | 1016.3 |
| 20260902101214 | 22 | 218 | 0.0 | 4.8 | 0.00 | 0.00 | 0.00 | 98 | 1016.4 |
| 20260902100713 | 22 | 221 | 1.6 | 1.6 | 0.00 | 0.00 | 0.00 | 98 | 1016.2 |
| 20260902100209 | 22 | 228 | 1.6 | 1.6 | 0.00 | 0.00 | 0.00 | 98 | 1016.4 |
| 20260902095708 | 22 | 240 | 1.6 | 6.4 | 0.00 | 0.00 | 0.00 | 98 | 1016.4 |
| 20260902095202 | 22 | 239 | 1.6 | 4.8 | 0.00 | 0.00 | 0.00 | 98 | 1016.4 |
| 20260902094657 | 22 | 198 | 1.6 | 6.4 | 0.00 | 0.00 | 0.00 | 99 | 1016.5 |
| 20260902094154 | 22 | 246 | 1.6 | 1.6 | 0.00 | 0.00 | 0.00 | 98 | 1016.5 |
| 20260902093653 | 22 | 225 | 0.0 | 1.6 | 0.00 | 0.00 | 0.00 | 98 | 1016.4 |
| 20260902093148 | 22 | 233 | 0.0 | 4.8 | 0.00 | 0.00 | 0.00 | 99 | 1016.6 |
| 20260902092643 | 22 | 245 | 0.0 | 4.8 | 0.00 | 0.00 | 0.00 | 98 | 1016.6 |
| 20260902092142 | 22 | 218 | 0.0 | 1.6 | 0.00 | 0.00 | 0.00 | 98 | 1016.6 |
| 20260902091637 | 22 | 237 | 1.6 | 1.6 | 0.00 | 0.00 | 0.00 | 99 | 1016.9 |
| 20260902091134 | 21 | 237 | 0.0 | 1.6 | 0.00 | 0.00 | 0.00 | 98 | 1017.0 |
| 20260902090629 | 21 | 237 | 1.6 | 1.6 | 0.00 | 0.00 | 0.00 | 99 | 1016.9 |
| 20260902090128 | 21 | 155 | 0.0 | 0.0 | 0.00 | 0.00 | 0.00 | 98 | 1016.7 |
| 20260902085624 | 21 | 155 | 0.0 | 0.0 | 0.00 | 0.00 | 0.00 | 98 | 1016.7 |
| 20260902085118 | 21 | 155 | 0.0 | 0.0 | 0.00 | 0.00 | 0.00 | 98 | 1016.6 |
| 20260902084615 | 21 | 155 | 0.0 | 0.0 | 0.00 | 0.00 | 0.00 | 98 | 1016.6 |
| 20260902084111 | 21 | 155 | 0.0 | 0.0 | 0.00 | 0.00 | 0.00 | 98 | 1016.7 |
| 20260902083605 | 21 | 155 | 0.0 | 0.0 | 0.00 | 0.00 | 0.00 | 98 | 1016.7 |
| 20260902083105 | 21 | 155 | 0.0 | 1.6 | 0.00 | 0.00 | 0.00 | 98 | 1016.6 |
| 20260902082601 | 21 | 155 | 0.0 | 0.0 | 0.00 | 0.00 | 0.00 | 98 | 1016.5 |
| 20260902082057 | 21 | 155 | 0.0 | 0.0 | 0.00 | 0.00 | 0.00 | 98 | 1016.6 |
| 20260902081554 | 21 | 155 | 0.0 | 0.0 | 0.00 | 0.00 | 0.00 | 98 | 1016.7 |
| 20260902081053 | 21 | 155 | 0.0 | 0.0 | 0.00 | 0.00 | 0.00 | 98 | 1016.6 |
| 20260902080548 | 21 | 155 | 0.0 | 0.0 | 0.00 | 0.00 | 0.00 | 98 | 1016.4 |
| 20260902080045 | 21 | 155 | 0.0 | 0.0 | 0.00 | 0.00 | 0.00 | 98 | 1016.5 |
| 20260902075544 | 21 | 155 | 0.0 | 0.0 | 0.00 | 0.00 | 0.00 | 98 | 1016.5 |
| 20260902075040 | 21 | 155 | 0.0 | 0.0 | 0.00 | 0.00 | 0.00 | 98 | 1016.6 |
| 20260902074536 | 21 | 155 | 0.0 | 0.0 | 0.00 | 0.00 | 0.00 | 98 | 1016.6 |
| 20260902074031 | 21 | 155 | 0.0 | 0.0 | 0.00 | 0.00 | 0.00 | 98 | 1016.6 |
| 20260902073526 | 21 | 155 | 0.0 | 0.0 | 0.00 | 0.00 | 0.00 | 98 | 1016.5 |
| 20260902073023 | 21 | 155 | 0.0 | 0.0 | 0.00 | 0.00 | 0.00 | 98 | 1016.7 |
| 20260902072518 | 22 | 155 | 0.0 | 0.0 | 0.00 | 0.00 | 0.00 | 98 | 1016.6 |
| 20260902072015 | 22 | 155 | 0.0 | 0.0 | 0.00 | 0.00 | 0.00 | 98 | 1016.5 |
| 20260902071514 | 21 | 155 | 0.0 | 0.0 | 0.00 | 0.00 | 0.00 | 97 | 1016.7 |
| 20260902071011 | 22 | 155 | 1.6 | 1.6 | 0.00 | 0.00 | 0.00 | 97 | 1016.6 |
| 20260902070506 | 22 | 155 | 0.0 | 0.0 | 0.00 | 0.00 | 0.00 | 97 | 1017.0 |
| 20260902070007 | 22 | 155 | 0.0 | 0.0 | 0.00 | 0.00 | 0.00 | 97 | 1016.9 |
| 20260902065500 | 22 | 157 | 0.0 | 0.0 | 0.00 | 0.00 | 0.00 | 97 | 1017.0 |
| 20260902064955 | 22 | 157 | 0.0 | 0.0 | 0.00 | 0.00 | 0.00 | 97 | 1016.9 |
| 20260902064450 | 21 | 241 | 0.0 | 0.0 | 0.00 | 0.00 | 0.00 | 97 | 1016.9 |
| 20260902063946 | 21 | 241 | 0.0 | 0.0 | 0.00 | 0.00 | 0.00 | 97 | 1017.0 |
| 20260902063445 | 22 | 241 | 0.0 | 1.6 | 0.00 | 0.00 | 0.00 | 97 | 1017.1 |
| 20260902062941 | 22 | 241 | 0.0 | 0.0 | 0.00 | 0.00 | 0.00 | 97 | 1016.9 |
| 20260902062440 | 22 | 241 | 0.0 | 0.0 | 0.00 | 0.00 | 0.00 | 97 | 1017.1 |
| 20260902061935 | 21 | 241 | 0.0 | 0.0 | 0.00 | 0.00 | 0.00 | 97 | 1017.0 |
| 20260902061430 | 22 | 241 | 0.0 | 0.0 | 0.00 | 0.00 | 0.00 | 97 | 1017.0 |
| 20260902060926 | 22 | 241 | 0.0 | 1.6 | 0.00 | 0.00 | 0.00 | 97 | 1017.1 |
| 20260902060422 | 22 | 241 | 0.0 | 0.0 | 0.00 | 0.00 | 0.00 | 97 | 1016.9 |
| 20260902055918 | 22 | 241 | 0.0 | 1.6 | 0.00 | 0.00 | 0.00 | 97 | 1017.0 |
| 20260902055414 | 22 | 241 | 0.0 | 0.0 | 0.00 | 0.00 | 0.00 | 97 | 1017.1 |
| 20260902054909 | 22 | 241 | 0.0 | 0.0 | 0.00 | 0.00 | 0.00 | 97 | 1016.9 |
| 20260902054404 | 22 | 241 | 0.0 | 0.0 | 0.00 | 0.00 | 0.00 | 97 | 1017.1 |
| 20260902053859 | 22 | 241 | 0.0 | 0.0 | 0.00 | 0.00 | 0.00 | 97 | 1017.0 |
| 20260902053354 | 22 | 241 | 0.0 | 1.6 | 0.00 | 0.00 | 0.00 | 96 | 1017.1 |
| 20260902052853 | 22 | 241 | 0.0 | 0.0 | 0.00 | 0.00 | 0.00 | 96 | 1016.9 |
| 20260902052349 | 22 | 241 | 0.0 | 0.0 | 0.00 | 0.00 | 0.00 | 96 | 1016.5 |
| 20260902051843 | 22 | 241 | 0.0 | 0.0 | 0.00 | 0.00 | 0.00 | 96 | 1016.7 |
| 20260902051337 | 22 | 241 | 0.0 | 0.0 | 0.00 | 0.00 | 0.00 | 96 | 1016.7 |
| 20260902050832 | 22 | 241 | 0.0 | 1.6 | 0.00 | 0.00 | 0.00 | 96 | 1016.6 |
| 20260902050331 | 22 | 241 | 0.0 | 0.0 | 0.00 | 0.00 | 0.00 | 96 | 1016.5 |
| 20260902045826 | 22 | 241 | 0.0 | 0.0 | 0.00 | 0.00 | 0.00 | 95 | 1016.5 |
| 20260902045322 | 22 | 241 | 0.0 | 0.0 | 0.00 | 0.00 | 0.00 | 95 | 1016.5 |
| 20260902044819 | 22 | 241 | 0.0 | 0.0 | 0.00 | 0.00 | 0.00 | 95 | 1016.3 |
| 20260902044314 | 22 | 241 | 0.0 | 0.0 | 0.00 | 0.00 | 0.00 | 95 | 1016.6 |
| 20260902043814 | 22 | 241 | 0.0 | 0.0 | 0.00 | 0.00 | 0.00 | 95 | 1016.4 |
| 20260902043309 | 22 | 241 | 0.0 | 0.0 | 0.00 | 0.00 | 0.00 | 94 | 1016.6 |
| 20260902042809 | 22 | 241 | 0.0 | 0.0 | 0.00 | 0.00 | 0.00 | 94 | 1016.4 |
| 20260902042308 | 22 | 241 | 0.0 | 1.6 | 0.00 | 0.00 | 0.00 | 94 | 1016.6 |
| 20260902041759 | 22 | 241 | 1.6 | 4.8 | 0.00 | 0.00 | 0.00 | 93 | 1016.5 |
| 20260902041259 | 23 | 242 | 1.6 | 1.6 | 0.00 | 0.00 | 0.00 | 93 | 1016.5 |
| 20260902040758 | 23 | 241 | 0.0 | 1.6 | 0.00 | 0.00 | 0.00 | 92 | 1016.6 |
| 20260902040254 | 23 | 241 | 0.0 | 0.0 | 0.00 | 0.00 | 0.00 | 92 | 1016.4 |
| 20260902035752 | 23 | 242 | 1.6 | 1.6 | 0.00 | 0.00 | 0.00 | 92 | 1016.5 |
| 20260902035248 | 23 | 228 | 1.6 | 4.8 | 0.00 | 0.00 | 0.00 | 93 | 1016.5 |
| 20260902034746 | 23 | 270 | 0.0 | 1.6 | 0.00 | 0.00 | 0.00 | 93 | 1016.5 |
| 20260902034242 | 23 | 271 | 1.6 | 1.6 | 0.00 | 0.00 | 0.00 | 92 | 1016.5 |
| 20260902033739 | 23 | 271 | 1.6 | 1.6 | 0.00 | 0.00 | 0.00 | 92 | 1016.3 |
| 20260902033235 | 23 | 271 | 0.0 | 0.0 | 0.00 | 0.00 | 0.00 | 92 | 1016.4 |
| 20260902032733 | 23 | 271 | 0.0 | 1.6 | 0.00 | 0.00 | 0.00 | 90 | 1016.2 |
| 20260902032229 | 23 | 271 | 1.6 | 1.6 | 0.00 | 0.00 | 0.00 | 89 | 1016.4 |
| 20260902031723 | 23 | 270 | 3.2 | 6.4 | 0.00 | 0.00 | 0.00 | 90 | 1016.4 |
| 20260902031218 | 23 | 264 | 1.6 | 4.8 | 0.00 | 0.00 | 0.00 | 90 | 1016.5 |
| 20260902030714 | 23 | 243 | 0.0 | 1.6 | 0.00 | 0.00 | 0.00 | 89 | 1016.4 |
| 20260902030214 | 24 | 251 | 0.0 | 1.6 | 0.00 | 0.00 | 0.00 | 89 | 1016.6 |
| 20260902025713 | 23 | 216 | 1.6 | 4.8 | 0.00 | 0.00 | 0.00 | 90 | 1016.3 |
| 20260902025208 | 23 | 258 | 4.8 | 4.8 | 0.00 | 0.00 | 0.00 | 91 | 1016.3 |
| 20260902024703 | 23 | 256 | 3.2 | 1.6 | 0.00 | 0.00 | 0.00 | 92 | 1016.3 |
| 20260902024158 | 23 | 256 | 1.6 | 1.6 | 0.00 | 0.00 | 0.00 | 93 | 1016.2 |
| 20260902023654 | 23 | 256 | 1.6 | 1.6 | 0.00 | 0.00 | 0.00 | 93 | 1016.2 |
| 20260902023149 | 23 | 255 | 1.6 | 1.6 | 0.00 | 0.00 | 0.00 | 93 | 1016.3 |
| 20260902022648 | 23 | 256 | 0.0 | 0.0 | 0.00 | 0.00 | 0.00 | 93 | 1016.2 |
| 20260902022144 | 23 | 256 | 0.0 | 0.0 | 0.00 | 0.00 | 0.00 | 92 | 1016.2 |
| 20260902021640 | 23 | 256 | 1.6 | 1.6 | 0.00 | 0.00 | 0.00 | 92 | 1016.3 |
| 20260902021134 | 23 | 256 | 0.0 | 0.0 | 0.00 | 0.00 | 0.00 | 91 | 1016.3 |
| 20260902020631 | 23 | 256 | 0.0 | 0.0 | 0.00 | 0.00 | 0.00 | 90 | 1016.1 |
| 20260902020126 | 23 | 256 | 0.0 | 0.0 | 0.00 | 0.00 | 0.00 | 89 | 1015.9 |
| 20260902015622 | 23 | 256 | 0.0 | 0.0 | 0.00 | 0.00 | 0.00 | 89 | 1016.2 |
| 20260902015118 | 23 | 256 | 0.0 | 0.0 | 0.00 | 0.00 | 0.00 | 89 | 1016.1 |
| 20260902014613 | 23 | 256 | 0.0 | 0.0 | 0.00 | 0.00 | 0.00 | 88 | 1016.1 |
| 20260902014109 | 23 | 256 | 0.0 | 0.0 | 0.00 | 0.00 | 0.00 | 87 | 1016.1 |
| 20260902013608 | 24 | 256 | 0.0 | 0.0 | 0.00 | 0.00 | 0.00 | 87 | 1016.1 |
| 20260902013104 | 24 | 256 | 0.0 | 0.0 | 0.00 | 0.00 | 0.00 | 86 | 1016.0 |
| 20260902012559 | 24 | 256 | 0.0 | 0.0 | 0.00 | 0.00 | 0.00 | 86 | 1016.1 |
| 20260902012054 | 24 | 256 | 0.0 | 0.0 | 0.00 | 0.00 | 0.00 | 86 | 1016.0 |
| 20260902011550 | 24 | 256 | 0.0 | 0.0 | 0.00 | 0.00 | 0.00 | 86 | 1015.9 |
| 20260902011049 | 25 | 256 | 0.0 | 0.0 | 0.00 | 0.00 | 0.00 | 85 | 1015.9 |
| 20260902010549 | 25 | 256 | 0.0 | 1.6 | 0.00 | 0.00 | 0.00 | 85 | 1015.8 |
| 20260902010045 | 25 | 256 | 0.0 | 0.0 | 0.00 | 0.00 | 0.00 | 84 | 1015.8 |
| 20260902005542 | 25 | 256 | 1.6 | 1.6 | 0.00 | 0.00 | 0.00 | 84 | 1015.7 |
| 20260902005039 | 25 | 302 | 0.0 | 1.6 | 0.00 | 0.00 | 0.00 | 83 | 1015.4 |
| 20260902004538 | 25 | 246 | 0.0 | 0.0 | 0.00 | 0.00 | 0.00 | 82 | 1015.5 |
| 20260902004033 | 25 | 246 | 0.0 | 4.8 | 0.00 | 0.00 | 0.00 | 81 | 1015.5 |
| 20260902003529 | 25 | 211 | 1.6 | 1.6 | 0.00 | 0.00 | 0.00 | 80 | 1015.5 |
| 20260902003024 | 26 | 140 | 0.0 | 0.0 | 0.00 | 0.00 | 0.00 | 80 | 1015.4 |
| 20260902002520 | 26 | 218 | 3.2 | 1.6 | 0.00 | 0.00 | 0.00 | 79 | 1015.5 |
| 20260902002015 | 26 | 214 | 0.0 | 0.0 | 0.00 | 0.00 | 0.00 | 79 | 1015.5 |